Regional Weather Roundup
Issued by NWS Upton, NY

Current Version | Previous Version | Text Only | Print | Product List | Glossary Off
Versions: 1 2 3 4 5 6 7 8 9 10 11 12 13 14 15 16 17 18 19 20 21 22 23 24 25 26 27 28
000 ASUS41 KOKX 271108 RWROKX REGIONAL WEATHER ROUNDUP NATIONAL WEATHER SERVICE NEW YORK NY 700 AM EDT MON MAR 27 2017 NOTE: "FAIR" INDICATES FEW OR NO CLOUDS BELOW 12,000 FEET WITH NO SIGNIFICANT WEATHER AND/OR OBSTRUCTIONS TO VISIBILITY. NYZ071-072-176-178-NJZ106-104-271200- NEW YORK CITY METRO AREA CITY SKY/WX TMP DP RH WIND PRES REMARKS Central Park LGT RAIN 39 38 96 VRB5 30.15F FOG Wall St Helipt CLOUDY 39 39 100 NE14 30.14F WCI 31 LaGuardia APRT LGT RAIN 40 37 89 NE12 30.14F VSB 1/2 WCI 33 Kennedy INTL DRZL/FOG 42 42 100 E7 30.15F VSB 1/2 Breezy Point N/A 39 N/A N/A E12 N/A WCI 32 Newark/Liberty DRZL/FOG 40 40 100 N6 30.14F VSB 1/2 Teterboro LGT RAIN 39 38 96 E5G17 30.13F VSB 1 $$ NYZ177-179-078>081-271200- LONG ISLAND NEW YORK CITY SKY/WX TMP DP RH WIND PRES REMARKS Jones Beach N/A 41 N/A N/A E10 N/A Matinecock PT N/A 37 N/A N/A E16 N/A WCI 28 Farmingdale FOG 41 41 100 E7 30.14F VSB 1/2 MacArthur/ISP DRZL/FOG 41 41 100 E8 30.14F VSB 1/4 Shirley FOG 41 41 100 E7 30.15F VSB 3/4 Westhampton FOG 40 39 97 E9 30.17F VSB 3/4 WCI 34 East Hampton CLOUDY 39 39 97 E13 30.17F FOG WCI 32 Montauk N/A 41 40 96 E8 30.18F $$ NYZ052-065-067-271200- HUDSON VALLEY CITY SKY/WX TMP DP RH WIND PRES REMARKS White Plains LGT RAIN 37 35 92 E7 30.13F VSB 1/4 WCI 32 Newburgh DRIZZLE 36 36 100 SE9 30.12F FOG WCI 29 Montgomery LGT RAIN 35 34 96 N6 30.11F FOG WCI 30 Poughkeepsie MIX PCPN 35 34 96 CALM 30.12F Albany LGT RAIN 36 33 89 S8 30.11F FOG WCI 30 $$ NJZ001-105-106-008-010-013-015-019>022-104-271200- NEW JERSEY CITY SKY/WX TMP DP RH WIND PRES REMARKS Newark/Liberty DRZL/FOG 40 40 100 N6 30.14F VSB 1/2 Teterboro LGT RAIN 39 38 96 E5G17 30.13F VSB 1 Caldwell LGT RAIN 38 37 97 E6 30.14F FOG WCI 33 Somerville N/A 39 38 96 CALM 30.11 FOG Linden DRIZZLE 40 39 98 CALM 30.13F Sussex LGT RAIN 36 36 100 CALM 30.11F FOG Andover N/A 37 36 96 CALM 30.10F Trenton LGT RAIN 40 40 100 E6 30.10F VSB 1 Millville CLOUDY 46 46 100 VRB3 30.10F Atlantic City FOG 45 44 97 E6 30.11F VSB 1/4 Wrightstown FOG 42 41 98 E6 30.08F VSB 1/2 Toms River FOG 42 42 100 CALM 30.12F VSB 1/4 Belmar LGT RAIN 42 41 96 E7 30.13F VSB 1/4 $$ PAZ047>061-062-071-271200- EASTERN PENNSYLVANIA CITY SKY/WX TMP DP RH WIND PRES REMARKS Philadelphia FOG 43 42 97 E6 30.11F VSB 3/4 Allentown RAIN 40 37 89 CALM 30.11S FOG Scranton LGT RAIN 39 39 100 CALM 30.05R FOG $$ CTZ002-004>006-009-010-012-RIZ004-006-007-MAZ004-011-015-271200- SOUTHERN NEW ENGLAND IN CT CITY SKY/WX TMP DP RH WIND PRES REMARKS Bradley INTL LGT RAIN 34 33 96 N6 30.19F FOG WCI 29 Hartford CLOUDY 35 34 96 N7 30.19F FOG WCI 29 Danbury CLOUDY 36 36 100 E6 30.15F FOG WCI 31 Wtrbury/Oxford LGT RAIN 34 30 86 E5 30.15F VSB 1/4 WCI 30 Bridgeport CLOUDY 39 37 92 E16 30.17F FOG WCI 30 Meriden LGT RAIN 36 33 89 N5 30.18F FOG WCI 32 New Haven FOG 38 37 97 E9 30.17F VSB 3/4 WCI 31 Chester NOT AVBL Groton CLOUDY 40 38 93 E12 30.19S FOG WCI 33 Wilimantic CLOUDY 37 36 96 CALM 30.20F FOG IN RI CITY SKY/WX TMP DP RH WIND PRES REMARKS Providence DRIZZLE 37 35 92 NE5 30.22F FOG WCI 33 Block Island CLOUDY 39 38 96 E9 30.20F FOG WCI 33 Westerly CLOUDY 40 39 97 E10 30.20F FOG WCI 33 IN MA CITY SKY/WX TMP DP RH WIND PRES REMARKS Boston DRZL/FOG 38 38 100 E12 30.25F VSB 3/4 WCI 30 Worcester FRZ RAIN 31 29 92 E9 30.17F VSB 1/4 WCI 23 Westfield LGT RAIN 33 33 100 N5 30.19F FOG WCI 29 Provincetown CLOUDY 40 38 93 SE9 30.25F WCI 34 Nantucket CLOUDY 42 38 85 E16 30.22F $$ ANZ330-335-338-340-345-350-353-355-271200- COASTAL MARINE OBSERVATIONS STATION/POSITION TIME SKY/WX TEMP WIND PRES VSBY WAVE AIR SEA DIR/SP/G HT/PER (UTC) (F) (DEG/KT/KT) (MB) (MI) (FT/S) NY HARB ENTRANCE 1050 41 42 70/ 12/ 14 1020.3 5/ 8 20 S FIRE ISLAND 1050 43 40 120/ 8/ 10 1019.8 6/ 7 GREAT SOUTH BAY NOT AVBL 23 SSW MONTAUK P 1050 42 42 1021.5 5/ 6 15 E BARNEGAT LI 1030 43 N/A 6/ 8 HUDSON CANYON 0950 45 44 100/ 6/ 6 1021.0 5/ 7 KINGS POINT 1042 38 39 1020.7 EXECUTION ROCKS NOT AVBL CENTRAL LI SOUND 1030 38 90/ 14/ 16 N/A 3/ 4 EASTERN LI SOUND NOT AVBL ROBBINS REEF 1048 39 50/ 8/ 8 1020.6 $$ >>>>>>>>>>>>>>>>>>>>>>>>>>>> KEY <<<<<<<<<<<<<<<<<<<<<<<<<<< > < > SKY/WX - Sky Condition/Present Weather < > TMP - Temperature in Fahrenheit < > DP - Dew Point in Fahrenheit < > RH - Relative Humidity in Percent < > WIND - Direction (from) and Speed in MPH < > PRES - Mean Sea Level Pressure (inches of Hg) < > WCI - Wind Chill Index < > VSB - VISIBILITY IN MILES < > HX - HEAT INDEX < > TC - TEMPERATURE IN CELSIUS < > VRB - VARIABLE WIND DIRECTION < > < >>>>>>>>>>>>>>>>>>>>>>>>>>>> KEY <<<<<<<<<<<<<<<<<<<<<<<<<<<

USA.gov is the U.S. government's official web portal to all federal, state and local government web resources and services.